(°C)
20°
20°
20°
21°
22°
23°
23°
(°C)
20°
20°
21°
21°
23°
24°
24°
O
ONO
ONO
O
O
ONO
ONO
(km/h)
5-15
5-14
4-12
5-11
5-13
5-14
8-16
(mm)
0
0
0
0
0
0
0
(%)
5
5
6
6
6
0
16

Sonnenhöhe

/ -10.3°
sun-icon
UV 3
05:20
19:59
Abnehmender Mond (250°)
22:06
12:03

METAR für 52.17°N 20.97°O (EPWA)

Zeit Bedingungen Temperatur/
Taupunkt
Wind Sichtweite Wetter Wolken Druck Änderung Roh
VFR 20°C / 18°C 90º 3kt >10km - Clouds and Visibility OK 1010 No Significant change EPWA 170200Z 09003KT CAVOK 20/18 Q1010 NOSIG
VFR 20°C / 19°C 70º 2kt >10km - Clouds and Visibility OK 1010 No Significant change EPWA 170130Z 07002KT CAVOK 20/19 Q1010 NOSIG
VFR 22°C / 19°C 80º 4kt >10km - Clouds and Visibility OK 1010 No Significant change EPWA 170100Z 08004KT CAVOK 22/19 Q1010 NOSIG
VFR 22°C / 19°C 70º 5kt >10km - Clouds and Visibility OK 1010 No Significant change EPWA 170030Z 07005KT CAVOK 22/19 Q1010 NOSIG
VFR 22°C / 19°C 90º variable 070º to 140º 3kt >10km - Few Clouds 3300ft 1010 No Significant change EPWA 170000Z 09003KT 070V140 9999 FEW033 22/19 Q1010 NOSIG
VFR 23°C / 19°C 70º 5kt >10km - Broken Clouds 3300ft 1010 No Significant change EPWA 162330Z 07005KT 9999 BKN033 23/19 Q1010 NOSIG
VFR 21°C / 18°C variable 2kt >10km - Scattered Clouds 3000ft 1010 No Significant change EPWA 162300Z VRB02KT 9999 SCT030 21/18 Q1010 NOSIG
VFR 22°C / 19°C 340º 2kt >10km - Clouds and Visibility OK 1010 No Significant change EPWA 162230Z 34002KT CAVOK 22/19 Q1010 NOSIG
VFR 20°C / 18°C variable 2kt >10km - Clouds and Visibility OK 1010 No Significant change EPWA 162200Z VRB02KT CAVOK 20/18 Q1010 NOSIG
VFR 24°C / 18°C 60º variable 360º to 090º 3kt >10km - Clouds and Visibility OK 1010 No Significant change EPWA 162130Z 06003KT 360V090 CAVOK 24/18 Q1010 NOSIG
VFR 24°C / 18°C 70º 5kt >10km - Clouds and Visibility OK 1010 No Significant change EPWA 162100Z 07005KT CAVOK 24/18 Q1010 NOSIG
VFR 24°C / 18°C 70º 5kt >10km - Clouds and Visibility OK 1010 No Significant change EPWA 162030Z 07005KT CAVOK 24/18 Q1010 NOSIG
VFR 25°C / 18°C 50º variable 010º to 080º 4kt >10km - Clouds and Visibility OK 1010 No Significant change EPWA 162000Z 05004KT 010V080 CAVOK 25/18 Q1010 NOSIG
VFR 25°C / 18°C 60º 4kt >10km - Clouds and Visibility OK 1010 No Significant change EPWA 161930Z 06004KT CAVOK 25/18 Q1010 NOSIG
VFR 26°C / 18°C 50º variable 020º to 090º 5kt >10km - Clouds and Visibility OK 1010 No Significant change EPWA 161900Z 05005KT 020V090 CAVOK 26/18 Q1010 NOSIG
VFR 26°C / 18°C 50º 6kt >10km - Clouds and Visibility OK 1010 No Significant change EPWA 161830Z 05006KT CAVOK 26/18 Q1010 NOSIG
VFR 26°C / 18°C 30º 6kt >10km - Clouds and Visibility OK 1010 No Significant change EPWA 161800Z 03006KT CAVOK 26/18 Q1010 NOSIG
VFR 27°C / 19°C 360º 5kt >10km - Clouds and Visibility OK 1010 No Significant change EPWA 161730Z 36005KT CAVOK 27/19 Q1010 NOSIG
VFR 27°C / 19°C 30º variable 360º to 080º 6kt >10km - Clouds and Visibility OK 1010 No Significant change EPWA 161700Z 03006KT 360V080 CAVOK 27/19 Q1010 NOSIG
VFR 27°C / 18°C 60º variable 340º to 100º 5kt >10km - Clouds and Visibility OK 1009 No Significant change EPWA 161630Z 06005KT 340V100 CAVOK 27/18 Q1009 NOSIG
VFR 27°C / 19°C 40º variable 010º to 080º 4kt >10km - Clouds and Visibility OK 1009 No Significant change EPWA 161600Z 04004KT 010V080 CAVOK 27/19 Q1009 NOSIG
VFR 27°C / 17°C 100º 5kt >10km - Clouds and Visibility OK 1009 No Significant change EPWA 161530Z 10005KT CAVOK 27/17 Q1009 NOSIG
VFR 27°C / 17°C 80º variable 350º to 150º 3kt >10km - Clouds and Visibility OK 1009 No Significant change EPWA 161500Z 08003KT 350V150 CAVOK 27/17 Q1009 NOSIG
VFR 27°C / 18°C 90º 8kt >10km - Clouds and Visibility OK 1009 No Significant change EPWA 161430Z 09008KT CAVOK 27/18 Q1009 NOSIG

VFR

20°C / 18°C

[Mehr]
Wind 90º 3kt
Sichtweite >10km
Wetter -
Wolken Clouds and Visibility OK
Druck 1010
Änderung No Significant change
Roh EPWA 170200Z 09003KT CAVOK 20/18 Q1010 NOSIG

VFR

20°C / 19°C

[Mehr]
Wind 70º 2kt
Sichtweite >10km
Wetter -
Wolken Clouds and Visibility OK
Druck 1010
Änderung No Significant change
Roh EPWA 170130Z 07002KT CAVOK 20/19 Q1010 NOSIG

VFR

22°C / 19°C

[Mehr]
Wind 80º 4kt
Sichtweite >10km
Wetter -
Wolken Clouds and Visibility OK
Druck 1010
Änderung No Significant change
Roh EPWA 170100Z 08004KT CAVOK 22/19 Q1010 NOSIG

VFR

22°C / 19°C

[Mehr]
Wind 70º 5kt
Sichtweite >10km
Wetter -
Wolken Clouds and Visibility OK
Druck 1010
Änderung No Significant change
Roh EPWA 170030Z 07005KT CAVOK 22/19 Q1010 NOSIG

VFR

22°C / 19°C

[Mehr]
Wind 90º variable 070º to 140º 3kt
Sichtweite >10km
Wetter -
Wolken Few Clouds 3300ft
Druck 1010
Änderung No Significant change
Roh EPWA 170000Z 09003KT 070V140 9999 FEW033 22/19 Q1010 NOSIG

VFR

23°C / 19°C

[Mehr]
Wind 70º 5kt
Sichtweite >10km
Wetter -
Wolken Broken Clouds 3300ft
Druck 1010
Änderung No Significant change
Roh EPWA 162330Z 07005KT 9999 BKN033 23/19 Q1010 NOSIG

VFR

21°C / 18°C

[Mehr]
Wind variable 2kt
Sichtweite >10km
Wetter -
Wolken Scattered Clouds 3000ft
Druck 1010
Änderung No Significant change
Roh EPWA 162300Z VRB02KT 9999 SCT030 21/18 Q1010 NOSIG

VFR

22°C / 19°C

[Mehr]
Wind 340º 2kt
Sichtweite >10km
Wetter -
Wolken Clouds and Visibility OK
Druck 1010
Änderung No Significant change
Roh EPWA 162230Z 34002KT CAVOK 22/19 Q1010 NOSIG

VFR

20°C / 18°C

[Mehr]
Wind variable 2kt
Sichtweite >10km
Wetter -
Wolken Clouds and Visibility OK
Druck 1010
Änderung No Significant change
Roh EPWA 162200Z VRB02KT CAVOK 20/18 Q1010 NOSIG

VFR

24°C / 18°C

[Mehr]
Wind 60º variable 360º to 090º 3kt
Sichtweite >10km
Wetter -
Wolken Clouds and Visibility OK
Druck 1010
Änderung No Significant change
Roh EPWA 162130Z 06003KT 360V090 CAVOK 24/18 Q1010 NOSIG

VFR

24°C / 18°C

[Mehr]
Wind 70º 5kt
Sichtweite >10km
Wetter -
Wolken Clouds and Visibility OK
Druck 1010
Änderung No Significant change
Roh EPWA 162100Z 07005KT CAVOK 24/18 Q1010 NOSIG

VFR

24°C / 18°C

[Mehr]
Wind 70º 5kt
Sichtweite >10km
Wetter -
Wolken Clouds and Visibility OK
Druck 1010
Änderung No Significant change
Roh EPWA 162030Z 07005KT CAVOK 24/18 Q1010 NOSIG

VFR

25°C / 18°C

[Mehr]
Wind 50º variable 010º to 080º 4kt
Sichtweite >10km
Wetter -
Wolken Clouds and Visibility OK
Druck 1010
Änderung No Significant change
Roh EPWA 162000Z 05004KT 010V080 CAVOK 25/18 Q1010 NOSIG

VFR

25°C / 18°C

[Mehr]
Wind 60º 4kt
Sichtweite >10km
Wetter -
Wolken Clouds and Visibility OK
Druck 1010
Änderung No Significant change
Roh EPWA 161930Z 06004KT CAVOK 25/18 Q1010 NOSIG

VFR

26°C / 18°C

[Mehr]
Wind 50º variable 020º to 090º 5kt
Sichtweite >10km
Wetter -
Wolken Clouds and Visibility OK
Druck 1010
Änderung No Significant change
Roh EPWA 161900Z 05005KT 020V090 CAVOK 26/18 Q1010 NOSIG

VFR

26°C / 18°C

[Mehr]
Wind 50º 6kt
Sichtweite >10km
Wetter -
Wolken Clouds and Visibility OK
Druck 1010
Änderung No Significant change
Roh EPWA 161830Z 05006KT CAVOK 26/18 Q1010 NOSIG

VFR

26°C / 18°C

[Mehr]
Wind 30º 6kt
Sichtweite >10km
Wetter -
Wolken Clouds and Visibility OK
Druck 1010
Änderung No Significant change
Roh EPWA 161800Z 03006KT CAVOK 26/18 Q1010 NOSIG

VFR

27°C / 19°C

[Mehr]
Wind 360º 5kt
Sichtweite >10km
Wetter -
Wolken Clouds and Visibility OK
Druck 1010
Änderung No Significant change
Roh EPWA 161730Z 36005KT CAVOK 27/19 Q1010 NOSIG

VFR

27°C / 19°C

[Mehr]
Wind 30º variable 360º to 080º 6kt
Sichtweite >10km
Wetter -
Wolken Clouds and Visibility OK
Druck 1010
Änderung No Significant change
Roh EPWA 161700Z 03006KT 360V080 CAVOK 27/19 Q1010 NOSIG

VFR

27°C / 18°C

[Mehr]
Wind 60º variable 340º to 100º 5kt
Sichtweite >10km
Wetter -
Wolken Clouds and Visibility OK
Druck 1009
Änderung No Significant change
Roh EPWA 161630Z 06005KT 340V100 CAVOK 27/18 Q1009 NOSIG

VFR

27°C / 19°C

[Mehr]
Wind 40º variable 010º to 080º 4kt
Sichtweite >10km
Wetter -
Wolken Clouds and Visibility OK
Druck 1009
Änderung No Significant change
Roh EPWA 161600Z 04004KT 010V080 CAVOK 27/19 Q1009 NOSIG

VFR

27°C / 17°C

[Mehr]
Wind 100º 5kt
Sichtweite >10km
Wetter -
Wolken Clouds and Visibility OK
Druck 1009
Änderung No Significant change
Roh EPWA 161530Z 10005KT CAVOK 27/17 Q1009 NOSIG

VFR

27°C / 17°C

[Mehr]
Wind 80º variable 350º to 150º 3kt
Sichtweite >10km
Wetter -
Wolken Clouds and Visibility OK
Druck 1009
Änderung No Significant change
Roh EPWA 161500Z 08003KT 350V150 CAVOK 27/17 Q1009 NOSIG

VFR

27°C / 18°C

[Mehr]
Wind 90º 8kt
Sichtweite >10km
Wetter -
Wolken Clouds and Visibility OK
Druck 1009
Änderung No Significant change
Roh EPWA 161430Z 09008KT CAVOK 27/18 Q1009 NOSIG

TAF für 52.17°N 20.97°O (EPWA)

From till


From till Wind variable 2kt. Visibility 10km or more. Nil Significant Cloud.
With 30% probability, Temporarly from till Visibility 4000m. Thunderstorm Rain . Broken Clouds 2000ft.
With 40% probability, Temporarly from till Scattered Clouds 5000ft.
Temporarly from till Wind 70º 10kt.

Roh: TAF EPWA 162330Z 1700/1724 VRB02KT CAVOK PROB40 TEMPO 1712/1720 SCT050CB PROB30 TEMPO 1712/1718 4000 TSRA BKN020CB TEMPO 1714/1720 07010KT

Radar- und Niederschlags-Nowcast für 52.17°N 20.97°O

Nieselregen
Leicht
Moderat
Stark
Sehr schwer
Hagel

Die Ortsmarkierung zeigt auf 52.17°N 20.97°O. Diese Animation zeigt das Niederschlagsradar der letzten Stunde, sowie eine 1h Vorhersage. Nieselregen und leichter Schneefall können für das Radar unsichtbar sein. Die Niederschlagsintensität ist farbcodiert von Hellblau bis Orange.

Aktuelle Satelliten- und Regenbilder für 52.17°N 20.97°O

Die Standortmarkierung ist platziert auf 52.17°N 20.97°O. [Mehr]

Das Echtzeit-Satellitenbild kombiniert sichtbares Licht während des Tages mit Infrarotstrahlung während der Nacht. Nachts ist das Bild nicht dunkel, da Infrarotstrahlung Temperaturunterschiede erkennen kann. Leider sind niedrige Wolken und Nebel nur schwer von den Bodentemperaturen zu unterscheiden und können daher nachts fast unsichtbar sein. Meteosat-Satellitenbilder für Europa werden alle 5 Minuten in Echtzeit aktualisiert. Die Bilder GOES-16 / GOES-17 (Nord- und Südamerika) und Himawari (Asien) werden alle 10 Minuten aktualisiert.

Niederschläge werden von Radar und Satelliten berechnet. Nachts sind die Niederschlagsberechnungen durch die Satelliten weniger genau als tagsüber. Orangene Kreuze markieren Stellen, an denen Blitze aufgenommen wurden (über Europa).

Copyright 2022 EUMETSAT / meteoblue. Blitzdaten zur Verfügung gestellt von nowcast.

Zum Anfang